Regional Weather Roundup
Issued by NWS

Home | Current Version | Previous Version | Graphics & Text | Print | Product List | Glossary On
Versions: 1 2 3 4 5 6 7 8 9 10 11 12 13 14 15 16 17 18 19 20 21 22 23 24 25 26 27 28 29 30 31 32 33 34 35 36 37 38 39 40 41 42 43 44 45 46 47 48 49 50
091
ASUS44 KJAN 211010
RWRMS

MISSISSIPPI HOURLY WEATHER ROUNDUP
NATIONAL WEATHER SERVICE JACKSON MS
400 AM CST SUN DEC 21 2014

NOTE: "FAIR: INDICATES FEW OR NO CLOUDS BELOW 12,000 FEET WITH NO
SIGNIFICANT WEATHER AND/OR OBSTRUCTIONS TO VISIBILITY.

MSZ001>002-007>008-010>013-018>021-025>028-034>036-211100-
NORTHWEST MISSISSIPPI

CITY           SKY/WX    TMP DP  RH WIND       PRES   REMARKS
CLARKSDALE     FAIR      34  34 100 CALM      30.21F
CLEVELAND      FAIR      35  35  98 CALM      30.18F
GREENWOOD      CLEAR     34  31  88 NE3       30.19F
GREENVILLE     CLEAR     36  33  89 CALM      30.17F
GRENADA        FAIR      32  32 100 CALM      30.20F
OLIVE BRANCH   CLEAR     32  32 100 CALM      30.21S
OXFORD         FAIR      30  28  93 CALM      30.21F
TUNICA         SUNNY     34  32  93 NE3       30.21F
$$

MSZ003>006-009-014>017-022>024-029>033-037>039-211100-
NORTHEAST MISSISSIPPI

CITY           SKY/WX    TMP DP  RH WIND       PRES   REMARKS
COLUMBUS AFB   CLEAR     32  32 100 CALM      30.19F FOG
CORINTH        FAIR      28  27  93 W3        30.19F
GOLDN TRIANGLE CLEAR     34  30  86 N5        30.17F WCI  30
STARKVILLE     FAIR      30  30 100 CALM      30.18F FOG
TUPELO         CLEAR     30  26  85 NE8       30.19F WCI  22
$$

MSZ040-058-211100-
CENTRAL MISSISSIPPI

CITY           SKY/WX    TMP DP  RH WIND       PRES   REMARKS
JACKSON INTL   CLEAR     39  35  86 NE7       30.16F WCI  34
JACKSON HAWKNS CLEAR     37  34  89 CALM      30.15F
MERIDIAN KEY   CLEAR     33  31  92 N3        30.16F
MERIDIAN NAS   MOCLDY    35  33  92 W3        30.17F
RAYMOND        FAIR      32  28  86 CALM      30.16F FOG
VICKSBURG      CLEAR     39  36  89 N3        30.17F
$$

MSZ059>079-211100-
SOUTH MISSISSIPPI

CITY           SKY/WX    TMP DP  RH WIND       PRES   REMARKS
HATTIESBURG    CLOUDY    47  43  86 NE3       30.15F
MCCOMB         CLEAR     43  39  86 VRB3      30.13F
NATCHEZ        FAIR      36  30  80 N3        30.15F
PINE BELT      MOCLDY    43  37  81 NE5       30.15F
$$

MSZ080>082-211100-
COASTAL MISSISSIPPI

CITY           SKY/WX    TMP DP  RH WIND       PRES   REMARKS
BILOXI         CLOUDY    51  48  91 N7        30.11F
PASCAGOULA     CLOUDY    50  48  93 N5        30.11F
GULFPORT       CLOUDY    50  46  86 N6        30.11F
$$



USA.gov is the U.S. government's official web portal to all federal, state and local government web resources and services.